User: anonymous   Login
Location: Unspecified
(0.0000°N, 0.0000°E)
Time: 06:55:32
(UTC+00:00)
Language:

STARLINK-31089 - Orbit

View from above orbital plane
View from above orbital plane
View from above satellite
View from above satellite

Ground track
Ground track

The orbit is defined by the following mean orbital elements,

1 58610U          26145.23301231 +.00000000 +00000-0 +74020-4 0 00003
2 58610  43.0037  96.8196 0001516 272.0648  88.0030 15.27582745    05
Epoch (UTC): 25 May 2026 05:35:32
Eccentricity: 0.0001516
inclination: 43.0037°
perigee height: 482 km
apogee height: 484 km
right ascension of ascending node: 96.8196°
argument of perigee: 272.0648°
revolutions per day: 15.27582745
mean anomaly at epoch: 88.0030°

The dashed part of the orbit path shows where the satellite is in the earth's shadow,  

DLR